Regional Weather Roundup
Issued by NWS State College, PA

Home | Current Version | Previous Version | Text Only | Print | Product List | Glossary Off
Versions: 1 2 3 4 5 6 7 8 9 10 11 12 13 14 15 16 17 18 19 20 21 22 23 24 25 26 27 28 29 30 31 32 33 34 35 36 37 38 39 40 41 42 43 44 45 46 47 48 49 50

000
ASUS41 KCTP 310103
RWRCTP

REGIONAL WEATHER ROUNDUP
NATIONAL WEATHER SERVICE STATE COLLEGE PA
900 PM EDT SAT AUG 30 2014

Note: "fair" indicates few or no clouds below 12,000 feet with no
significant weather and/or obstructions to visibility.

* = STATION THAT DOES NOT REPORT PRECIPITATION /E.G. RAIN...SNOW...ETC/
    THUNDER OR FOG.

PAZ002>004-007>009-013>016-020>023-029>032-310200-
WESTERN PENNSYLVANIA

CITY           SKY/WX    TMP DP  RH WIND       PRES   REMARKS
ERIE           PTCLDY    82  64  54 S9        29.96R
MEADVILLE      CLOUDY    78  65  63 S5        30.03R
FRANKLIN*      PTCLDY    75  64  69 S7        30.06R
NEW CASTLE     FAIR      79  68  69 CALM      30.03R
BEAVER COUNTY  NOT AVBL
BUTLER*        CLEAR     79  64  61 S5        30.06R
PITTSBURGH INT PTCLDY    80  67  64 S3        30.04R
PITTSBURGH     CLEAR     79  65  62 S7        30.05R
INDIANA*       PTCLDY    77  68  73 SE6       30.11R
LATROBE        CLEAR     75  70  83 S6        30.07S
WASHINGTON CO* CLEAR     72  68  88 CALM      30.06S
$$

PAZ004>006-010>012-017>019-024>028-033>037-041-042-045-046-049>053-310200-
CENTRAL PENNSYLVANIA

CITY           SKY/WX    TMP DP  RH WIND       PRES   REMARKS
BRADFORD       PTCLDY    73  67  81 SE9       30.09R
DUBOIS         PTCLDY    73  69  87 SE7       30.09R
CLEARFIELD     PTCLDY    72  67  84 CALM      30.12R
JOHNSTOWN      PTCLDY    71  67  87 SE12G20   30.14S
ALTOONA        PTCLDY    73  68  84 CALM      30.14R
STATE COLLEGE  PTCLDY    70  66  88 CALM      30.12S
WILLIAMSPORT   CLOUDY    73  64  73 E7        30.10R
SELINSGROVE    CLOUDY    74  66  76 S5        30.12S
FT INDIANTOWN  CLOUDY    73  67  81 CALM      30.15R
CAPITAL CITY   MOCLDY    74  66  76 SE6       30.14R
HARRISBURG     CLOUDY    75  66  73 SE5       30.13R
YORK           MOCLDY    72  66  81 SE5       30.14R
$$

PAZ038>040-043-044-047-048-054-055-060>062-067>071-310200-
EASTERN PENNSYLVANIA

CITY           SKY/WX    TMP DP  RH WIND       PRES   REMARKS
SCRANTON       CLOUDY    71  61  70 VRB3      30.14S
MOUNT POCONO   MOCLDY    64  60  87 SE5       30.20R
ALLENTOWN      CLOUDY    75  61  61 S7        30.15S
QUAKERTOWN*    CLOUDY    73  63  68 CALM      30.17R
READING        CLOUDY    76  62  62 SW3       30.15R
LANCASTER      CLOUDY    73  63  70 SE3       30.15R
COATESVILLE    CLOUDY    72  70  94 CALM      30.17R
POTTSTOWN      CLOUDY    74  62  66 VRB3      30.17R
BLUE BELL      CLOUDY    75  63  64 S5        30.16R
DOYLESTOWN     CLOUDY    72  63  73 VRB3      30.16R
WILLOW GROVE   NOT AVBL
NORTH PHILA    CLOUDY    76  61  59 SE6       30.17S
PHILADELPHIA   CLOUDY    75  63  66 SE7       30.16S
$$


USA.gov is the U.S. government's official web portal to all federal, state and local government web resources and services.